Weather History for KCMD - November, 2013

Change the Weather History Date:

Sunday, November 24, 2013

  Actual Average Record
Temperature  
Mean Temperature 30 °F -  
Max Temperature 39 °F - - ()
Min Temperature 22 °F - - ()
Degree Days  
Heating Degree Days 34    
Moisture  
Dew Point 14 °F    
Average Humidity 54    
Maximum Humidity 73    
Minimum Humidity 33    
Precipitation  
Precipitation 0.00 in - - ()
Sea Level Pressure  
Sea Level Pressure 30.47 in    
Wind  
Wind Speed 10 mph (North)    
Max Wind Speed 21 mph    
Max Gust Speed 26 mph    
Visibility 10 miles    
Events      
Averages and records for this station are not official NWS values.
T = Trace of Precipitation, MM = Missing Value Source: NWS Daily Summary

Daily Weather History Graph

Daily Weather History Graph

Search for Another Location

Airport or City:

Trip Planner

Search our weather history database for the weather conditions in past years. The results will help you decide how hot, cold, wet, or windy it might be!

Date:

Astronomy

Nov. 24, 2013 Rise Set
Actual Time 6:29 AM CST 4:39 PM CST
Civil Twilight 6:02 AM CST 5:06 PM CST
Nautical Twilight 5:31 AM CST 5:36 PM CST
Astronomical Twilight 5:01 AM CST 6:06 PM CST
Moon 10:55 PM CST 11:24 AM CST
Length of Visible Light 11h 04m
Length of Day
10h 09m
Waning Gibbous, 60% of the Moon is Illuminated
Nov 24
Waning Gibbous
Nov 25
Last Quarter
Dec 2
New
Dec 9
First Quarter
Dec 17
Full

Hourly Weather History & Observations

Time (CST) Temp. Windchill Dew Point Humidity Pressure Visibility Wind Dir Wind Speed Gust Speed Precip Events Conditions
12:15 AM 29.3 °F 19.1 °F 18.9 °F 65% 30.42 in 10.0 mi North 12.7 mph 20.7 mph N/A   Clear
12:35 AM 28.6 °F 19.3 °F 18.5 °F 66% 30.42 in 10.0 mi North 10.4 mph 20.7 mph N/A   Clear
12:55 AM 27.9 °F 17.8 °F 18.5 °F 68% 30.42 in 10.0 mi North 11.5 mph 19.6 mph N/A   Clear
1:15 AM 27.5 °F 17.4 °F 18.3 °F 68% 30.43 in 10.0 mi North 11.5 mph 18.4 mph N/A   Clear
1:35 AM 27.1 °F 16.9 °F 18.0 °F 68% 30.44 in 10.0 mi North 11.5 mph 26.5 mph N/A   Clear
1:55 AM 26.8 °F 15.9 °F 17.6 °F 68% 30.44 in 10.0 mi North 12.7 mph 21.9 mph N/A   Clear
2:15 AM 26.4 °F 15.0 °F 17.2 °F 68% 30.45 in 10.0 mi North 13.8 mph 24.2 mph N/A   Clear
2:35 AM 25.7 °F 14.0 °F 17.1 °F 70% 30.45 in 10.0 mi North 13.8 mph 23.0 mph N/A   Clear
2:55 AM 25.5 °F 13.8 °F 17.1 °F 70% 30.45 in 10.0 mi North 13.8 mph 19.6 mph N/A   Clear
3:15 AM 25.0 °F 15.5 °F 16.7 °F 71% 30.45 in 10.0 mi North 9.2 mph - N/A   Clear
3:35 AM 24.6 °F 13.2 °F 16.7 °F 72% 30.45 in 10.0 mi North 12.7 mph 18.4 mph N/A   Clear
3:55 AM 24.3 °F 12.7 °F 16.3 °F 72% 30.45 in 10.0 mi North 12.7 mph 18.4 mph N/A   Clear
4:15 AM 23.9 °F 12.9 °F 16.3 °F 73% 30.46 in 10.0 mi North 11.5 mph 18.4 mph N/A   Clear
4:35 AM 23.7 °F 13.3 °F 16.0 °F 72% 30.46 in 10.0 mi North 10.4 mph 17.3 mph N/A   Clear
4:55 AM 23.5 °F 13.7 °F 16.0 °F 73% 30.47 in 10.0 mi North 9.2 mph 16.1 mph N/A   Clear
5:15 AM 23.4 °F 12.2 °F 15.8 °F 73% 30.47 in 10.0 mi North 11.5 mph 19.6 mph N/A   Clear
5:35 AM 23.4 °F 12.8 °F 15.8 °F 73% 30.48 in 10.0 mi North 10.4 mph 20.7 mph N/A   Clear
5:55 AM 23.0 °F 10.6 °F 15.6 °F 73% 30.49 in 10.0 mi North 13.8 mph 19.6 mph N/A   Clear
6:15 AM 23.0 °F 12.4 °F 15.3 °F 72% 30.50 in 10.0 mi North 10.4 mph 20.7 mph N/A   Clear
6:35 AM 22.8 °F 11.5 °F 15.3 °F 73% 30.51 in 10.0 mi North 11.5 mph 17.3 mph N/A   Clear
6:55 AM 22.6 °F 11.9 °F 14.9 °F 72% 30.51 in 10.0 mi North 10.4 mph 18.4 mph N/A   Clear
7:15 AM 22.8 °F 10.9 °F 14.9 °F 72% 30.53 in 10.0 mi North 12.7 mph 19.6 mph N/A   Clear
7:35 AM 23.2 °F 10.8 °F 14.9 °F 71% 30.55 in 10.0 mi NNE 13.8 mph 18.4 mph N/A   Clear
7:55 AM 23.9 °F 9.1 °F 14.7 °F 68% 30.55 in 10.0 mi NNE 20.7 mph 25.3 mph N/A   Clear
8:15 AM 25.2 °F 13.3 °F 14.0 °F 63% 30.55 in 10.0 mi North 13.8 mph - N/A   Clear
8:35 AM 26.2 °F 14.7 °F 14.0 °F 60% 30.55 in 10.0 mi NNE 13.8 mph 19.6 mph N/A   Clear
8:55 AM 27.3 °F 18.4 °F 13.6 °F 56% 30.55 in 10.0 mi NNE 9.2 mph 18.4 mph N/A   Clear
9:15 AM 28.6 °F 17.7 °F 13.6 °F 54% 30.54 in 10.0 mi NNE 13.8 mph 20.7 mph N/A   Clear
9:35 AM 29.3 °F 20.2 °F 13.1 °F 51% 30.54 in 10.0 mi North 10.4 mph 18.4 mph N/A   Clear
9:55 AM 30.4 °F 22.2 °F 13.1 °F 49% 30.55 in 10.0 mi NNE 9.2 mph 18.4 mph N/A   Clear
10:15 AM 31.5 °F 22.3 °F 12.4 °F 45% 30.54 in 10.0 mi NE 11.5 mph 17.3 mph N/A   Clear
10:35 AM 32.0 °F 23.6 °F 12.4 °F 44% 30.54 in 10.0 mi NNE 10.4 mph - N/A   Clear
10:55 AM 33.1 °F 26.9 °F 12.7 °F 43% 30.52 in 10.0 mi NE 6.9 mph 17.3 mph N/A   Clear
11:15 AM 34.0 °F 25.5 °F 12.7 °F 42% 30.51 in 10.0 mi NE 11.5 mph 17.3 mph N/A   Clear
11:35 AM 34.9 °F 27.7 °F 12.2 °F 39% 30.50 in 10.0 mi North 9.2 mph 16.1 mph N/A   Clear
11:55 AM 36.1 °F 29.9 °F 12.2 °F 37% 30.48 in 10.0 mi NE 8.1 mph - N/A   Clear
12:15 PM 36.9 °F 28.2 °F 11.8 °F 36% 30.47 in 10.0 mi NNE 13.8 mph 18.4 mph N/A   Clear
12:35 PM 37.4 °F 31.4 °F 12.6 °F 36% 30.46 in 10.0 mi North 8.1 mph - N/A   Clear
12:55 PM 37.8 °F 30.7 °F 12.2 °F 35% 30.45 in 10.0 mi NNE 10.4 mph 17.3 mph N/A   Clear
1:15 PM 38.5 °F 34.1 °F 12.4 °F 34% 30.45 in 10.0 mi North 5.8 mph - N/A   Clear
1:35 PM 38.7 °F 32.9 °F 12.4 °F 34% 30.45 in 10.0 mi NNE 8.1 mph - N/A   Clear
1:55 PM 38.8 °F 33.2 °F 11.8 °F 33% 30.45 in 10.0 mi NNE 8.1 mph - N/A   Clear
2:15 PM 39.0 °F 32.8 °F 12.4 °F 34% 30.45 in 10.0 mi NNE 9.2 mph - N/A   Clear
2:35 PM 38.7 °F 31.8 °F 11.8 °F 33% 30.44 in 10.0 mi NNE 10.4 mph - N/A   Clear
2:55 PM 38.8 °F 34.6 °F 11.7 °F 33% 30.45 in 10.0 mi NNE 5.8 mph - N/A   Clear
3:15 PM 38.8 °F 34.6 °F 11.7 °F 33% 30.45 in 10.0 mi North 5.8 mph - N/A   Clear
3:35 PM 38.3 °F 33.2 °F 11.5 °F 33% 30.45 in 10.0 mi NNE 6.9 mph - N/A   Clear
3:55 PM 37.8 °F 31.8 °F 11.3 °F 34% 30.45 in 10.0 mi North 8.1 mph - N/A   Clear
4:15 PM 36.7 °F 32.9 °F 11.1 °F 35% 30.45 in 10.0 mi North 4.6 mph - N/A   Clear
4:35 PM 34.9 °F 29.9 °F 10.8 °F 37% 30.45 in 10.0 mi NNE 5.8 mph - N/A   Clear
4:55 PM 33.6 °F 30.6 °F 11.3 °F 40% 30.44 in 10.0 mi North 3.5 mph - N/A   Clear
5:15 PM 32.4 °F 27.9 °F 11.8 °F 43% 30.44 in 10.0 mi North 4.6 mph - N/A   Clear
5:35 PM 31.8 °F 26.2 °F 11.5 °F 43% 30.44 in 10.0 mi North 5.8 mph - N/A   Clear
5:55 PM 32.0 °F 27.5 °F 10.6 °F 41% 30.44 in 10.0 mi North 4.6 mph - N/A   Clear
6:15 PM 31.6 °F 26.0 °F 10.4 °F 41% 30.45 in 10.0 mi North 5.8 mph - N/A   Clear
6:35 PM 31.3 °F 25.6 °F 10.4 °F 42% 30.44 in 10.0 mi North 5.8 mph - N/A   Clear
6:55 PM 31.3 °F 25.6 °F 10.2 °F 42% 30.45 in 10.0 mi North 5.8 mph - N/A   Clear
7:15 PM 30.7 °F 24.9 °F 10.0 °F 42% 30.45 in 10.0 mi NNE 5.8 mph - N/A   Clear
7:35 PM 29.8 °F 26.3 °F 10.6 °F 45% 30.45 in 10.0 mi North 3.5 mph - N/A   Clear
7:55 PM 28.9 °F 22.8 °F 11.1 °F 47% 30.44 in 10.0 mi NNE 5.8 mph - N/A   Clear
8:15 PM 28.8 °F 23.7 °F 11.1 °F 48% 30.45 in 10.0 mi NNE 4.6 mph - N/A   Clear
8:35 PM 28.4 °F 23.3 °F 11.3 °F 49% 30.44 in 10.0 mi NNE 4.6 mph - N/A   Clear
8:55 PM 27.9 °F 24.0 °F 11.5 °F 50% 30.44 in 10.0 mi NNE 3.5 mph - N/A   Clear
9:15 PM 28.2 °F - 11.8 °F 50% 30.43 in 10.0 mi Calm Calm - N/A   Clear
9:35 PM 28.2 °F - 13.3 °F 54% 30.43 in 10.0 mi Calm Calm - N/A   Clear
9:55 PM 27.7 °F - 13.6 °F 56% 30.43 in 10.0 mi Calm Calm - N/A   Clear
10:15 PM 26.6 °F - 14.4 °F 60% 30.43 in 10.0 mi Calm Calm - N/A   Clear
10:35 PM 25.9 °F 20.3 °F 14.9 °F 63% 30.43 in 10.0 mi NE 4.6 mph - N/A   Clear
10:55 PM 23.9 °F - 16.0 °F 72% 30.43 in 10.0 mi Calm Calm - N/A   Clear
11:15 PM 25.2 °F - 15.6 °F 67% 30.43 in 10.0 mi Calm Calm - N/A   Clear
11:35 PM 24.6 °F - 16.9 °F 72% 30.43 in 10.0 mi Calm Calm - N/A   Clear
11:55 PM 24.8 °F - 15.8 °F 69% 30.43 in 10.0 mi Calm Calm - N/A   Clear